Location: Newark
(33.6439°N, 114.9881°W)
Time: 22:32:03
(UTC+00:00)

Tiros 1 - Pass Details

Date: 24 July 2019
Orbit: 630 x 664 km, 48.4° (Epoch: 18 August)

Event Time Altitude Azimuth Distance (km) Brightness Sun altitude
Rises 20:20:00 0° 287° (WNW) 2,987 10.6 74.3°
Reaches altitude 10° 20:23:13 10° 309° (NW) 2,079 9.9 73.9°
Maximum altitude 20:26:10 16° 347° (NNW) 1,713 9.4 73.6°
Drops below altitude 10° 20:29:09 10° 26° (NNE) 2,083 9.7 73.2°
Sets 20:32:22 0° 48° (NE) 2,995 10.4 72.8°
